GW3673 Weather Reports


time (UTC)temp
C
wind
direction
speed
KPH
gust
KPH
rain 1hr
cm
rain 24hr
cm
rain mn
cm
humidity
%
barometer
mb
20260505185519 13 327 1.6 6.4 0.00 0.00 0.00 55 1013.3
20260505184519 13 319 1.6 9.7 0.00 0.00 0.00 55 1013.3
20260505183517 13 320 1.6 11.3 0.00 0.00 0.00 55 1013.2
20260505182517 13 337 1.6 8.0 0.00 0.00 0.00 56 1013.2
20260505181521 13 324 1.6 8.0 0.00 0.00 0.00 55 1013.1
20260505180517 13 110 1.6 6.4 0.00 0.00 0.00 54 1013.1
20260505175517 13 125 1.6 6.4 0.00 0.00 0.00 53 1013.2
20260505174618 13 28 3.2 8.0 0.00 0.00 0.00 52 1013.2
20260505173518 14 15 1.6 8.0 0.00 0.00 0.00 51 1013.2
20260505172638 14 309 1.6 8.0 0.00 0.00 0.00 52 1013.3
20260505171524 14 26 1.6 8.0 0.00 0.00 0.00 51 1013.2
20260505170518 14 318 1.6 6.4 0.00 0.00 0.00 52 1013.2
20260505165622 14 100 1.6 9.7 0.00 0.00 0.00 53 1013.2
20260505164522 14 341 3.2 9.7 0.00 0.00 0.00 55 1013.3
20260505163539 14 94 1.6 6.4 0.00 0.00 0.00 56 1013.3
20260505162522 13 330 1.6 6.4 0.00 0.00 0.00 57 1013.3
20260505161536 13 333 3.2 6.4 0.00 0.00 0.00 58 1013.3
20260505160522 14 78 1.6 8.0 0.00 0.00 0.00 57 1013.3
20260505152520 14 99 1.6 6.4 0.00 0.00 0.00 61 1013.5
20260505151517 14 314 3.2 11.3 0.00 0.00 0.00 63 1013.4
20260505150517 14 353 0.0 3.2 0.00 0.00 0.00 65 1013.6
20260505140518 15 158 1.6 6.4 0.00 0.00 0.00 65 1013.6
20260505124519 15 334 1.6 6.4 0.00 0.00 0.00 49 1013.6
20260505123516 15 330 1.6 6.4 0.00 0.00 0.00 48 1013.6
20260505122517 15 10 1.6 4.8 0.00 0.00 0.00 49 1013.6
20260505121537 15 342 3.2 8.0 0.00 0.00 0.00 50 1013.6
20260505120517 15 49 1.6 8.0 0.00 0.00 0.00 50 1013.6
20260505115517 15 356 1.6 12.9 0.00 0.00 0.00 51 1013.7
20260505114618 15 324 3.2 8.0 0.00 0.00 0.00 51 1013.8
20260505113521 15 301 0.0 4.8 0.00 0.00 0.00 51 1013.9
20260505112518 15 329 0.0 4.8 0.00 0.00 0.00 50 1013.9
20260505111518 15 260 0.0 4.8 0.00 0.00 0.00 52 1013.9
20260505110524 15 331 1.6 6.4 0.00 0.00 0.00 51 1014.0
20260505101519 15 3 1.6 9.7 0.00 0.00 0.00 54 1014.3
20260505100522 15 321 1.6 8.0 0.00 0.00 0.00 54 1014.3
20260505095524 15 334 3.2 9.7 0.00 0.00 0.00 55 1014.3
20260505094523 14 358 1.6 8.0 0.00 0.00 0.00 57 1014.4
20260505093520 13 283 1.6 8.0 0.00 0.00 0.00 58 1014.4
20260505092520 13 326 1.6 6.4 0.00 0.00 0.00 58 1014.6
20260505091520 13 354 3.2 9.7 0.00 0.00 0.00 59 1014.6
20260505090517 13 333 3.2 6.4 0.00 0.00 0.00 59 1014.7
20260505085523 13 339 0.0 4.8 0.00 0.00 0.00 59 1014.7
20260505084522 13 348 3.2 9.7 0.00 0.00 0.00 58 1014.7
20260505083518 13 334 1.6 6.4 0.00 0.00 0.00 58 1014.7
20260505082518 13 331 1.6 8.0 0.00 0.00 0.00 58 1014.8
20260505081527 13 331 1.6 6.4 0.00 0.00 0.00 58 1014.8
20260505080538 13 12 1.6 4.8 0.00 0.00 0.00 58 1014.7
20260505075519 13 65 0.0 4.8 0.00 0.00 0.00 58 1014.8
20260505074519 12 38 1.6 6.4 0.00 0.03 0.00 58 1014.8
20260505073519 13 65 1.6 12.9 0.00 0.03 0.00 57 1014.8
20260505072519 12 323 1.6 8.0 0.00 0.03 0.00 60 1014.9
20260505071519 12 317 1.6 6.4 0.00 0.03 0.00 59 1014.8
20260505070519 12 7 1.6 6.4 0.00 0.03 0.00 59 1014.7
20260505065522 11 342 0.0 3.2 0.00 0.03 0.00 67 1014.6
20260505064523 11 329 1.6 4.8 0.00 0.03 0.00 70 1014.5
20260505063540 11 315 0.0 3.2 0.00 0.03 0.00 77 1014.6
20260505062520 10 132 1.6 6.4 0.00 0.03 0.00 80 1014.5
20260505061520 10 33 0.0 3.2 0.00 0.03 0.00 91 1014.6
20260505060520 10 0.0 0.0 0.00 0.03 0.00 93 1014.5
20260505055520 10 0.0 0.0 0.00 0.03 0.00 92 1014.5
20260505054520 10 0.0 0.0 0.00 0.03 0.00 92 1014.5
20260505053626 10 0.0 0.0 0.00 0.03 0.00 92 1014.5
20260505052521 10 0.0 0.0 0.00 0.03 0.00 92 1014.6
20260505051519 10 0.0 0.0 0.00 0.03 0.00 92 1014.5
20260505050518 10 0.0 0.0 0.00 0.03 0.00 92 1014.6
20260505041516 10 0.0 0.0 0.00 0.03 0.00 88 1014.5
20260505040516 11 0.0 0.0 0.00 0.03 0.00 87 1014.3
20260505035525 11 325 0.0 0.0 0.00 0.03 0.00 87 1014.2
20260505034519 11 26 0.0 4.8 0.00 0.03 0.00 88 1014.2
20260505033600 10 319 1.6 4.8 0.00 0.03 0.00 89 1014.3
20260505032517 10 327 0.0 4.8 0.00 0.03 0.00 90 1014.4
20260505031537 10 127 0.0 3.2 0.00 0.03 0.00 91 1014.5
20260505030540 10 143 0.0 3.2 0.00 0.03 0.00 93 1014.4
20260505025520 10 130 0.0 4.8 0.00 0.03 0.00 95 1014.5
20260505024520 9 110 0.0 4.8 0.00 0.03 0.00 96 1014.5
20260505023521 8 137 0.0 3.2 0.00 0.03 0.00 96 1014.6
20260505022518 8 0.0 0.0 0.00 0.03 0.00 96 1014.6
20260505021541 8 0.0 0.0 0.00 0.03 0.00 95 1014.6
20260505020518 8 0.0 0.0 0.00 0.03 0.00 95 1014.6
20260505015518 8 0.0 0.0 0.00 0.03 0.00 95 1014.6
20260505014539 8 0.0 0.0 0.00 0.03 0.00 94 1014.6
20260505013519 8 0.0 0.0 0.00 0.03 0.00 94 1014.7
20260505012519 9 0.0 0.0 0.00 0.03 0.00 94 1014.8
20260505011519 9 0.0 0.0 0.00 0.03 0.00 94 1014.8
20260505010519 9 0.0 0.0 0.00 0.03 0.00 93 1014.8
20260505005519 10 0.0 0.0 0.00 0.03 0.00 93 1014.8
20260505004520 10 0.0 0.0 0.00 0.03 0.00 92 1014.8
20260505003517 10 0.0 0.0 0.00 0.03 0.00 92 1014.8
20260505002517 10 0.0 0.0 0.00 0.03 0.00 91 1014.9
20260505001517 10 0.0 0.0 0.00 0.03 0.00 92 1014.9
20260505000517 10 0.0 0.0 0.00 0.03 0.00 93 1015.0
20260504235537 10 0.0 0.0 0.00 0.03 0.00 95 1015.1
20260504234518 10 89 0.0 6.4 0.00 0.03 0.00 96 1015.2
20260504233658 10 154 0.0 0.0 0.00 0.03 0.00 95 1015.3
20260504232521 10 0.0 0.0 0.00 0.03 0.00 95 1015.2
20260504231518 10 0.0 0.0 0.00 0.03 0.00 95 1015.2
20260504230518 10 0.0 0.0 0.00 0.03 0.00 94 1015.3
20260504225518 10 0.0 0.0 0.00 0.03 0.03 94 1015.2
20260504224538 10 0.0 0.0 0.00 0.03 0.03 94 1015.2
20260504223622 10 0.0 0.0 0.00 0.03 0.03 94 1015.2
20260504222519 10 0.0 0.0 0.00 0.03 0.03 93 1015.2
20260504221519 11 0.0 0.0 0.00 0.03 0.03 93 1015.2
20260504220559 11 0.0 0.0 0.00 0.03 0.03 93 1015.2
20260504215519 11 0.0 0.0 0.00 0.03 0.03 93 1015.3
20260504214516 11 0.0 0.0 0.00 0.03 0.03 92 1015.2
20260504213519 11 0.0 0.0 0.00 0.03 0.03 92 1015.3
20260504212520 11 0.0 0.0 0.00 0.03 0.03 92 1015.3
20260504211520 11 0.0 0.0 0.00 0.03 0.03 91 1015.4
20260504210520 11 0.0 0.0 0.00 0.03 0.03 90 1015.4
20260504205523 11 0.0 0.0 0.00 0.03 0.03 88 1015.4
20260504204637 12 0.0 0.0 0.00 0.03 0.03 87 1015.3
20260504203517 12 233 0.0 0.0 0.00 0.03 0.03 86 1015.2
20260504202538 13 0.0 0.0 0.00 0.03 0.03 84 1015.2
20260504201518 13 0.0 0.0 0.00 0.03 0.03 82 1015.2
20260504200518 13 0.0 0.0 0.00 0.03 0.03 81 1015.1
20260504195518 14 0.0 0.0 0.00 0.03 0.03 78 1015.0
20260504194538 15 115 0.0 3.2 0.00 0.03 0.03 76 1014.9
20260504193522 15 139 0.0 1.6 0.00 0.03 0.03 75 1014.7
20260504192522 15 129 0.0 4.8 0.00 0.03 0.03 75 1014.6
20260504191519 15 130 1.6 4.8 0.00 0.03 0.03 74 1014.5
20260504190519 15 118 1.6 6.4 0.00 0.03 0.03 74 1014.4